www.pogodaiklimat.ru

Погода и климат >> Архив погоды >> Австралия >> Morawa Airport


ПОГОДА в Morawa Airport

  • Прогноз погоды в Morawa Airport
  • Монитор погоды в Morawa Airport
  • Климат города

АРХИВ ПОГОДЫ в Morawa Airport

Время (UTC), дата Ветер
(напр.,м/с)
 
Видим.   Явления Облачность Т
(С)
Тd
(С)
f
(%)
Тe
(С)
Тes
(С)
Комфортность P
(гПа)
Po
(гПа)
Тmin
(С)
Tmax
(С)
R
(мм)
R24
(мм)
S
(см)
10 14.10 ЮЗ 5 н/о н/о +17.5 +4.8 43 +17 +17 1015.9 984.4
12 14.10 ЮЗ 3 н/о н/о +13.9 +7.2 64 +13 +13 1017.5 986.0
13 14.10 З 2 н/о н/о +12.4 +7.9 74 +12 +12 1018.3 986.7 +21.5
15 14.10 З 2 н/о н/о +11.2 +8.9 86 +10 +10 1018.8 987.2
16 14.10 З 2 н/о н/о +10.0 +9.4 96 +9 +9 1018.6 987.0
18 14.10 ЮЗ 1 н/о н/о +8.6 +8.6 100 +8 +8 1018.6 987.0
19 14.10 0 н/о 1019.0 987.4
21 14.10 штиль 0 н/о н/о +6.8 +6.8 100 +6 +6 1019.5 987.9
22 14.10 штиль 0 н/о н/о +6.5 +6.5 100 +5 +5 1020.1 988.5
00 15.10 Ю 2 н/о н/о +15.0 +9.6 70 +15 +15 1021.3 989.6
01 15.10 ЮВ 4 н/о н/о +16.9 +7.8 55 +17 +17 1021.1 989.4
03 15.10 В 3 н/о н/о +19.8 +6.9 43 +21 +21 комфорт 1020.3 988.7
04 15.10 В 3 н/о н/о +20.7 +5.9 38 +22 +22 комфорт 1019.8 988.2
06 15.10 ЮЗ 2 н/о н/о +23.0 +3.0 27 +23 +23 комфорт 1018.9 987.3
07 15.10 Ю 2 н/о н/о +24.2 +3.5 26 +24 +24 комфорт 1018.5 986.9
09 15.10 Ю 3 н/о н/о +24.9 +1.7 22 +24 +24 комфорт 1018.4 986.8
10 15.10 0 н/о 1018.8 987.2
12 15.10 ЮЗ 4 н/о н/о 1020.3 988.7
13 15.10 0 н/о 1020.8 989.2
15 15.10 Ю 3 н/о н/о +14.2 +9.4 73 +13 +13 1020.9 989.3
16 15.10 Ю 3 н/о н/о +13.1 +9.4 78 +12 +12 1020.7 989.1
18 15.10 Ю 3 н/о н/о +11.4 +9.7 89 +10 +10 1020.3 988.7
19 15.10 Ю 2 н/о н/о +10.8 +9.9 94 +9 +9 1020.4 988.8
21 15.10 ЮЗ 2 н/о н/о +9.7 +9.7 100 +8 +8 1020.4 988.8
22 15.10 Ю 2 н/о н/о +10.1 +10.1 100 +9 +9 1020.4 988.8
00 16.10 В 2 н/о н/о +18.3 +9.4 56 +19 +19 1020.7 989.1
01 16.10 В 4 н/о н/о +22.7 +7.7 38 +24 +24 комфорт 1020.1 988.5
03 16.10 С 3 н/о н/о +26.9 +5.8 26 +26 +26 жарко 1018.8 987.2
04 16.10 В 3 н/о н/о +27.8 +4.2 22 +26 +26 жарко 1017.7 986.2
06 16.10 ЮВ 3 н/о н/о +30.4 +1.8 16 +28 +28 жарко 1015.8 984.3
07 16.10 СВ 4 н/о н/о +31.6 +0.9 14 +29 +29 жарко 1015.1 983.6
09 16.10 С 4 н/о н/о +30.5 -2.1 12 +27 +27 жарко 1014.5 983.1
10 16.10 штиль 0 н/о н/о +29.3 0.0 15 +27 +27 жарко 1014.7 983.2
12 16.10 ЮВ 2 н/о н/о +22.1 +4.2 31 +22 +22 комфорт 1015.5 984.0
13 16.10 ЮВ 2 н/о н/о +20.1 +4.6 36 +21 +21 комфорт 1015.3 983.8
15 16.10 ЮЗ 1 н/о н/о +17.0 +6.2 49 +18 +18 1014.4 983.0
16 16.10 ЮЗ 2 н/о н/о +16.4 +6.5 52 +17 +17 1013.9 982.5
18 16.10 штиль 0 н/о н/о +13.0 +6.6 65 +13 +13 1012.7 981.3
19 16.10 штиль 0 н/о н/о +12.0 +6.1 67 +12 +12 1012.3 980.9
21 16.10 СВ 3 н/о н/о +16.4 +4.8 46 +16 +16 1012.0 980.6
22 16.10 СВ 3 н/о н/о +17.3 +3.9 41 +17 +17 1012.0 980.6
00 17.10 СВ 6 н/о н/о +24.2 +2.9 25 +23 +23 комфорт 1011.9 980.5
01 17.10 С 7 н/о н/о +28.4 +0.2 16 +26 +26 жарко 1011.6 980.2 +11.7
03 17.10 С 7 н/о н/о +33.2 1009.5 978.2
04 17.10 С 7 н/о н/о +35.6 -2.1 9 +32 +32 жарко 1008.2 976.9
06 17.10 СЗ 7 н/о н/о +36.4 -3.1 8 +32 +32 жарко 1005.8 974.6
07 17.10 З 9 н/о н/о +33.2 +8.6 22 +32 +32 жарко 1005.4 974.2
09 17.10 З 8 н/о н/о +26.9 +9.3 33 +27 +27 жарко 1005.9 974.7
10 17.10 З 8 н/о н/о +22.0 +10.5 48 +24 +24 комфорт 1006.9 975.7
12 17.10 З 7 н/о н/о +18.1 +12.5 70 +18 +18 1008.8 977.5
13 17.10 З 7 н/о н/о +17.1 +14.0 82 +16 +16 1009.1 977.8
15 17.10 З 7 н/о н/о +16.3 +13.8 85 +15 +15 1008.6 977.3
16 17.10 З 4 н/о н/о +15.8 +13.8 88 +15 +15 1008.0 976.8
18 17.10 СЗ 4 н/о н/о +15.4 +13.6 89 +14 +14 1007.0 975.8
19 17.10 СЗ 3 н/о н/о +15.6 +14.0 90 +15 +15 1006.9 975.7
21 17.10 З 7 н/о н/о +13.6 +13.6 100 +11 +11 1008.0 976.8
22 17.10 З 4 н/о в посл. час осадки н/о +13.5 +13.5 100 +12 +12 1008.6 977.3
00 18.10 З 3 н/о н/о +15.5 +12.6 83 +15 +15 1009.7 978.4
01 18.10 З 5 н/о {осадки} н/о +17.5 +11.1 66 +17 +17 1009.7 978.4 0.6
03 18.10 З 8 н/о н/о +16.8 +10.6 67 +15 +15 1010.2 978.9
04 18.10 З 8 н/о {осадки} н/о +17.5 +7.8 53 +16 +16 1010.4 979.1
06 18.10 З 10 н/о н/о +16.7 +7.6 55 +15 +15 1011.0 979.7
07 18.10 З 7 н/о {осадки} н/о +16.2 +9.2 63 +15 +15 1011.7 980.3 0.4
09 18.10 З 7 н/о н/о +15.3 +6.6 56 +14 +14 1013.0 981.6
10 18.10 З 8 н/о н/о +15.0 +4.4 49 +13 +13 1013.8 982.4
12 18.10 З 4 н/о н/о +11.4 +8.6 83 +9 +9 1016.2 984.7
13 18.10 З 2 н/о {осадки} н/о +10.6 +8.4 86 +10 +10 1016.8 985.3 +19.3 0.2
15 18.10 СЗ 3 н/о н/о +9.6 +8.7 94 +7 +7 1017.2 985.7
16 18.10 З 2 н/о {осадки} н/о +9.8 +8.4 91 +8 +8 1017.4 985.9
18 18.10 З 2 н/о н/о +8.8 +8.4 97 +7 +7 1017.6 986.1
19 18.10 З 2 н/о {осадки} н/о +8.8 +8.7 99 +7 +7 1018.0 986.4 0.2
21 18.10 З 1 н/о н/о +10.3 +9.2 93 +10 +10 1018.9 987.3
22 18.10 ЮЗ 1 н/о н/о +9.4 +9.4 100 +9 +9 1019.8 988.2
00 19.10 Ю 4 н/о н/о +14.1 +6.7 61 +13 +13 1021.6 989.9
01 19.10 Ю 5 н/о н/о +15.5 +5.1 50 +15 +15 1021.7 990.0 +8.4 0.8
03 19.10 Ю 5 н/о н/о +18.3 +3.8 38 +18 +18 1021.5 989.8
04 19.10 Ю 4 н/о н/о 1020.8 989.2
06 19.10 Ю 4 н/о н/о +21.1 +3.3 31 +21 +21 комфорт 1019.8 988.2
07 19.10 Ю 2 н/о н/о +21.6 +2.8 29 +22 +22 комфорт 1019.4 987.8
09 19.10 ЮЗ 3 н/о н/о +21.8 +2.5 28 +22 +22 комфорт 1019.4 987.8
10 19.10 ЮЗ 3 н/о н/о +20.8 +2.6 30 +22 +22 комфорт 1019.6 988.0
12 19.10 ЮЗ 4 н/о н/о +16.9 +5.5 47 +16 +16 1021.2 989.5
13 19.10 ЮЗ 3 н/о н/о +14.5 +6.6 59 +14 +14 1021.8 990.1
15 19.10 Ю 3 н/о н/о +12.3 +7.2 71 +11 +11 1021.7 990.0
16 19.10 Ю 3 н/о н/о +11.3 +7.6 78 +10 +10 1021.6 989.9
18 19.10 Ю 2 н/о н/о +9.7 +7.8 88 +8 +8 1020.4 988.8
19 19.10 Ю 2 н/о н/о +9.1 +8.2 94 +8 +8 1020.2 988.6
21 19.10 Ю 1 н/о н/о +8.1 +8.1 100 +7 +7 1020.4 988.8
22 19.10 Ю 1 н/о н/о +8.6 +8.6 100 +8 +8 1020.7 989.1
00 20.10 ЮВ 3 н/о н/о +15.6 +7.4 58 +15 +15 1020.9 989.3
01 20.10 ЮВ 3 н/о н/о +18.7 +5.9 43 +19 +19 1020.8 989.2
03 20.10 З 2 н/о н/о +23.7 +4.1 28 +23 +23 комфорт 1018.8 987.2
04 20.10 З 4 н/о н/о +24.8 +2.9 24 +24 +24 комфорт 1017.5 986.0
06 20.10 З 5 н/о н/о +27.4 +3.2 21 +26 +26 жарко 1016.1 984.6
07 20.10 З 5 н/о н/о +27.6 +3.3 21 +26 +26 жарко 1015.6 984.1
09 20.10 ЮЗ 7 н/о н/о +23.4 +6.7 34 +24 +24 комфорт 1016.5 985.0
10 20.10 ЮЗ 6 н/о н/о +20.9 +7.5 42 +22 +22 комфорт 1017.2 985.7
12 20.10 ЮЗ 4 н/о н/о +16.8 +9.0 60 +16 +16 1018.4 986.8
13 20.10 ЮЗ 4 н/о н/о +15.3 +10.1 71 +14 +14 1018.9 987.3 +28.3
15 20.10 ЮЗ 3 н/о н/о +13.5 +10.3 81 +12 +12 1018.7 987.1
16 20.10 З 2 н/о н/о +12.0 +10.1 88 +11 +11 1018.2 986.6
18 20.10 З 1 н/о н/о +10.9 +9.7 92 +10 +10 1017.4 985.9
19 20.10 З 1 н/о н/о +10.2 +10.1 99 +10 +10 1017.3 985.8
21 20.10 З 2 н/о н/о +10.9 +10.6 98 +9 +9 1018.0 986.4
22 20.10 З 1 н/о н/о +11.6 +10.5 93 +11 +11 1018.6 987.0
00 21.10 ЮЗ 4 н/о н/о +17.6 +8.5 55 +17 +17 1018.9 987.3
01 21.10 З 4 н/о н/о +19.5 +8.5 49 +20 +20 1019.1 987.5 +8.6
03 21.10 З 5 н/о н/о +21.9 +9.1 44 +23 +23 комфорт 1018.4 986.8
04 21.10 ЮЗ 5 н/о н/о +23.4 +8.3 38 +25 +25 комфорт 1017.5 986.0
06 21.10 З 6 н/о н/о +24.1 +8.9 38 +25 +25 комфорт 1016.4 984.9
07 21.10 ЮЗ 7 н/о н/о +23.8 +9.4 40 +25 +25 комфорт 1016.2 984.7
09 21.10 ЮЗ 6 н/о н/о +21.7 +9.9 47 +23 +23 комфорт 1016.7 985.2
10 21.10 ЮЗ 5 н/о н/о +19.6 +10.0 54 +21 +21 комфорт 1017.1 985.6

 

Местоположение метеостанции Morawa Airport (Западная Австралия, Австралия): широта -29.20 долгота 116.02 высота над уровнем моря 272 м.

В архиве по умолчанию представлена погода в Morawa Airport за последнюю неделю. Архивные данные за месяц целиком и за предыдущие месяцы, начиная с января 2011 года, Вы можете получить, выбрав интересующий диапазон дат из раскрывающегося списка и нажав кнопку "Ввод!".


*Определитесь, кто Вы:
робот инопланетянин человек

Внимание! Время в таблицах - всемирное. Для получения местного времени необходимо прибавить поправку, которая в Morawa Airport равна 8 ч.

Смотрите также архив погоды в соседних городах и на ближайших метеорологических станциях:

Погода в Rottnest Island Lighthouse (Западная Австралия, Австралия) (134 км)
Погода в Dalwallinu (Западная Австралия, Австралия) (136 км)
Погода в Geraldton Airport (Западная Австралия, Австралия) (136 км)
Погода в Mount Magnet Aero (Западная Австралия, Австралия) (214 км)
Погода в Gingin Aero (Западная Австралия, Австралия) (253 км)
Погода в Bullsbrook Pearce Amo (Западная Австралия, Австралия) (275 км)
Погода в Wanneroo (Западная Австралия, Австралия) (286 км)
Погода в Cunderdin Airfield (Западная Австралия, Австралия) (293 км)
Погода в Mount Lawley Perth Metro (Западная Австралия, Австралия) (303 км)
Погода в Perth (Западная Австралия, Австралия) (304 км)

Пояснения к столбцам:

Ветер - указаны скорость ветра в м/с - средняя за 10 мин, порывы в срок и между сроками (в фигурных скобках) и направление, откуда дует ветер: С - северный, СВ - северо-восточный, В - восточный, ЮВ - юго-восточный, Ю - южный, ЮЗ - юго-западный, З - западный, СЗ - северо-западный.
Видимость - горизонтальная дальность видимости в метрах или километрах. При видимости от 1 до 10 км при отсутствии осадков обычно наблюдается дымка, при ухудшении видимости до 1 км и менее - туман. В сухую погоду видимость может ухудшаться дымом, пылью или мглою.
Явления - указаны атмосферные явления, наблюдавшиеся в срок или в последний час перед сроком; фигурными скобками обозначены явления, наблюдавшиеся между сроками (за 1-3 часа до срока); квадратными скобками обозначены град или гололедные отложения с указанием их диаметра в мм.
Облачность - указаны через наклонную черту общая и нижняя облачность в баллах и высота нижней границы облаков в метрах; квадратными скобками обозначены формы облаков: Ci - перистые, Cs - перисто-слоистые, Cc - перисто-кучевые, Ac - высококучевые, As - высокослоистые, Sc - слоисто-кучевые, Ns - слоисто-дождевые, Cu - кучевые, Cb - кучево-дождевые. Подробнее классификацию облаков см. в Атласе облаков (PDF).
T - Температура воздуха - температура, измеренная на высоте 2 м над землей.
Td - Температура точки росы - температура, при понижении до которой содержащийся в воздухе водяной пар достигнет насыщения.
f - Относительная влажность воздуха - влажноcть воздуха, измеренная на высоте 2 м над землей.
Te - Эффективная температура - температура, которую ощущает одетый по сезону человек в тени. Характеристика душности погоды. При расчете учитывается влияние влажности воздуха и скорости ветра на теплоощущения человека.
Tes - Эффективная температура на солнце - температура, которую ощущает человек, с поправкой на солнечный нагрев. Характеристика знойности погоды. Зависит от высоты солнца над горизонтом, облачности и скорости ветра. Ночью, в пасмурную погоду, а также при ветре 12 м/с и более поправка равна нулю.
P - Атмосферное давление - приведенное к уровню моря атмосферное давление.
Po - Атмосферное давление - измеренное на уровне метеостанции атмосферное давление.
Tmin - Минимальная температура - минимум температуры воздуха на высоте 2 м над землей.
Tmax - Максимальная температура - максимум температуры воздуха на высоте 2 м над землей.
R - Количество осадков - Количество выпавших осадков за период времени, мм. При наведении курсора мыши на число - период времени, за который выпало указанное количество осадков.
R24 - Количество осадков - Количество выпавших осадков за 24 часа, мм.
S - Снежный покров - Высота снежного покрова, см. При наведении курсора мыши на число - состояние снежного покрова и степень покрытия местности в баллах.